Location: Cluj-Napoca
(46.7712°N, 23.6236°E)
Time: 09:13:26
(UTC+02:00)

First-Move - Pass Details

Date: 06 December 2021
Orbit: 574 x 664 km, 97.6° (Epoch: 20 January)

Event Time Altitude Azimuth Distance (km) Brightness Sun altitude
Rises 17:19:08 0° 214° (SW) 2,853 ? -7.0°
Reaches altitude 10° 17:22:16 10° 240° (WSW) 1,977 ? -7.5°
Maximum altitude 17:24:33 14° 272° (W) 1,744 ? -7.9°
Drops below altitude 10° 17:26:51 10° 304° (NW) 2,016 ? -8.2°
Sets 17:30:07 0° 330° (NNW) 2,952 ? -8.7°
